Red Wing, WI

1:13 AM CDT on April 30, 2017 (GMT -0500)
Red Wing Municipal

Weather History for KRGK - February, 2013

Change the Weather History Date:

Monday, February 25, 2013

  Actual Average Record
Temperature  
Mean Temperature 28 °F -  
Max Temperature 33 °F 30 °F 51 °F (1998)
Min Temperature 23 °F 15 °F -11 °F (2003)
Degree Days  
Heating Degree Days 37    
Moisture  
Dew Point 22 °F    
Average Humidity 78    
Maximum Humidity 86    
Minimum Humidity 70    
Precipitation  
Precipitation 0.00 in - - ()
Sea Level Pressure  
Sea Level Pressure 30.07 in    
Wind  
Wind Speed 0 mph (NNE)    
Max Wind Speed 5 mph    
Max Gust Speed -    
Visibility 7 miles    
Events      
Averages and records for this station are not official NWS values.
T = Trace of Precipitation, MM = Missing Value Source: NWS Daily Summary

Daily Weather History Graph

Daily Weather History Graph

Search for Another Location

Airport or City:

Trip Planner

Search our weather history database for the weather conditions in past years. The results will help you decide how hot, cold, wet, or windy it might be!

Date:

Astronomy

Feb. 25, 2013 Rise Set
Actual Time 6:53 AM CST 5:52 PM CST
Civil Twilight 6:24 AM CST 6:22 PM CST
Nautical Twilight 5:50 AM CST 6:56 PM CST
Astronomical Twilight 5:16 AM CST 7:29 PM CST
Moon 6:09 PM CST (2/25) 6:22 AM CST (2/25)
Length of Visible Light 11h 57m
Length of Day
10h 59m
Full, 100% of the Moon is Illuminated
Feb 25
Full
Feb 25
Full
Mar 4
Last Quarter
Mar 11
New
Mar 19
First Quarter

Hourly Weather History & Observations

Time (CST) Temp. Windchill Dew Point Humidity Pressure Visibility Wind Dir Wind Speed Gust Speed Precip Events Conditions
12:15 AM 24.8 °F - 19.4 °F 80% 30.09 in 10.0 mi Calm Calm - N/A   Overcast
12:35 AM 24.8 °F - 19.4 °F 80% 30.09 in 10.0 mi Calm Calm - N/A   Overcast
12:55 AM 24.8 °F - 19.4 °F 80% 30.10 in 10.0 mi Calm Calm - N/A   Overcast
1:15 AM 24.8 °F - 19.4 °F 80% 30.10 in 10.0 mi Calm Calm - N/A   Overcast
1:35 AM 24.8 °F - 19.4 °F 80% 30.10 in 10.0 mi Calm Calm - N/A   Overcast
1:55 AM 24.8 °F - 19.4 °F 80% 30.10 in 10.0 mi Calm Calm - N/A   Overcast
2:15 AM 24.8 °F - 19.4 °F 80% 30.10 in 10.0 mi Calm Calm - N/A   Overcast
2:35 AM 24.8 °F - 19.4 °F 80% 30.09 in 10.0 mi Calm Calm - N/A   Overcast
2:55 AM 24.8 °F - 21.2 °F 86% 30.09 in 10.0 mi Calm Calm - N/A   Overcast
3:15 AM 26.6 °F - 21.2 °F 80% 30.09 in 10.0 mi Calm Calm - N/A   Overcast
3:35 AM 26.6 °F - 21.2 °F 80% 30.07 in 10.0 mi Calm Calm - N/A   Overcast
3:55 AM 26.6 °F - 21.2 °F 80% 30.08 in 10.0 mi Calm Calm - N/A   Overcast
4:15 AM 26.6 °F - 21.2 °F 80% 30.08 in 10.0 mi Calm Calm - N/A   Overcast
4:35 AM 26.6 °F - 21.2 °F 80% 30.08 in 7.0 mi Calm Calm - N/A   Overcast
4:55 AM 26.6 °F - 21.2 °F 80% 30.07 in 7.0 mi Calm Calm - N/A   Overcast
5:15 AM 26.6 °F - 21.2 °F 80% 30.07 in 10.0 mi Calm Calm - N/A   Overcast
5:35 AM 26.6 °F - 21.2 °F 80% 30.07 in 10.0 mi Calm Calm - N/A   Mostly Cloudy
5:55 AM 26.6 °F - 21.2 °F 80% 30.07 in 10.0 mi Calm Calm - N/A   Mostly Cloudy
6:15 AM 26.6 °F - 21.2 °F 80% 30.09 in 7.0 mi Calm Calm - N/A   Overcast
6:35 AM 26.6 °F - 21.2 °F 80% 30.09 in 7.0 mi Calm Calm - N/A   Overcast
6:55 AM 26.6 °F - 21.2 °F 80% 30.09 in 7.0 mi Calm Calm - N/A   Overcast
7:15 AM 26.6 °F - 21.2 °F 80% 30.09 in 7.0 mi Calm Calm - N/A   Overcast
7:35 AM 26.6 °F - 21.2 °F 80% 30.08 in 5.0 mi Calm Calm - N/A   Haze
7:55 AM 26.6 °F - 21.2 °F 80% 30.09 in 7.0 mi Calm Calm - N/A   Overcast
8:15 AM 28.4 °F - 21.2 °F 74% 30.09 in 7.0 mi Calm Calm - N/A   Overcast
8:35 AM 28.4 °F - 21.2 °F 74% 30.10 in 7.0 mi Calm Calm - N/A   Mostly Cloudy
8:55 AM 28.4 °F - 21.2 °F 74% 30.11 in 7.0 mi Calm Calm - N/A   Mostly Cloudy
9:15 AM 28.4 °F - 23.0 °F 80% 30.10 in 7.0 mi Calm Calm - N/A   Mostly Cloudy
9:35 AM 28.4 °F - 23.0 °F 80% 30.09 in 5.0 mi Calm Calm - N/A   Haze
9:55 AM 28.4 °F - 23.0 °F 80% 30.10 in 7.0 mi Calm Calm - N/A   Clear
10:15 AM 30.2 °F - 24.8 °F 80% 30.09 in 7.0 mi Calm Calm - N/A   Clear
10:35 AM 30.2 °F - 24.8 °F 80% 30.10 in 7.0 mi Calm Calm - N/A   Clear
10:55 AM 30.2 °F - 24.8 °F 80% 30.10 in 5.0 mi Calm Calm - N/A   Haze
11:15 AM 30.2 °F - 24.8 °F 80% 30.10 in 5.0 mi Calm Calm - N/A   Haze
11:35 AM 30.2 °F - 24.8 °F 80% 30.10 in 5.0 mi Calm Calm - N/A   Haze
11:55 AM 32.0 °F - 24.8 °F 75% 30.09 in 5.0 mi Calm Calm - N/A   Haze
12:15 PM 32.0 °F - 24.8 °F 75% 30.09 in 5.0 mi Calm Calm - N/A   Haze
12:35 PM 32.0 °F - 24.8 °F 75% 30.09 in 5.0 mi Calm Calm - N/A   Haze
12:55 PM 33.8 °F - 24.8 °F 70% 30.07 in 5.0 mi Calm Calm - N/A   Haze
1:15 PM 33.8 °F - 24.8 °F 70% 30.07 in 5.0 mi Calm Calm - N/A   Haze
1:34 PM 33.8 °F - 24.8 °F 70% 30.07 in 5.0 mi Calm Calm - N/A   Haze
1:55 PM 33.8 °F - 24.8 °F 70% 30.06 in 5.0 mi Calm Calm - N/A   Haze
2:15 PM 33.8 °F - 24.8 °F 70% 30.06 in 5.0 mi Calm Calm - N/A   Haze
2:34 PM 33.8 °F - 24.8 °F 70% 30.06 in 5.0 mi Calm Calm - N/A   Haze
2:55 PM 33.8 °F - 26.6 °F 75% 30.06 in 5.0 mi Calm Calm - N/A   Haze
3:15 PM 33.8 °F - 26.6 °F 75% 30.06 in 5.0 mi Calm Calm - N/A   Haze
3:34 PM 33.8 °F - 24.8 °F 70% 30.06 in 5.0 mi Calm Calm - N/A   Haze
3:55 PM 33.8 °F - 24.8 °F 70% 30.06 in 5.0 mi Calm Calm - N/A   Haze
4:15 PM 33.8 °F - 24.8 °F 70% 30.06 in 5.0 mi Calm Calm - N/A   Haze
4:35 PM 33.8 °F - 24.8 °F 70% 30.06 in 5.0 mi Calm Calm - N/A   Haze
4:55 PM 33.8 °F - 24.8 °F 70% 30.06 in 4.0 mi Calm Calm - N/A   Haze
8:13 PM 28.4 °F 24.6 °F 23.0 °F 80% 30.05 in 5.0 mi NNE 3.5 mph - N/A   Haze
8:15 PM 28.4 °F 23.3 °F 23.0 °F 80% 30.06 in 5.0 mi NE 4.6 mph - N/A   Haze
8:35 PM 28.4 °F 24.6 °F 23.0 °F 80% 30.05 in 5.0 mi North 3.5 mph - N/A   Haze
8:55 PM 28.4 °F 24.6 °F 23.0 °F 80% 30.05 in 5.0 mi NNE 3.5 mph - N/A   Haze
9:14 PM 26.6 °F - 21.2 °F 80% 30.05 in 5.0 mi Calm Calm - N/A   Haze
9:35 PM 26.6 °F - 21.2 °F 80% 30.02 in 5.0 mi Calm Calm - N/A   Haze
9:55 PM 26.6 °F - 21.2 °F 80% 30.03 in 5.0 mi Calm Calm - N/A   Haze
10:14 PM 26.6 °F - 21.2 °F 80% 30.02 in 5.0 mi Calm Calm - N/A   Haze
10:35 PM 24.8 °F - 21.2 °F 86% 30.03 in 5.0 mi Calm Calm - N/A   Scattered Clouds
10:55 PM 24.8 °F - 21.2 °F 86% 30.04 in 5.0 mi Calm Calm - N/A   Mostly Cloudy
11:14 PM 24.8 °F - 21.2 °F 86% 30.04 in 5.0 mi Calm Calm - N/A   Scattered Clouds
11:35 PM 23.0 °F - 19.4 °F 86% 30.03 in 5.0 mi Calm Calm - N/A   Clear
11:55 PM 24.8 °F - 21.2 °F 86% 30.04 in 5.0 mi Calm Calm - N/A   Clear